AAL2299 TKPK-KMIA

Flight info

Callsign AAL2299
Flight time 2h 59m
Altitude 32000
Route DUSUL1 GABAR Y280 ACONY Y308 MADIZ VIICE2
Aircraft B738/M-SDE2E3FGHIRWXY/LB1

Departure

Time 2026-04-25 19:15
Airport Robert L. Bradshaw International Airport (TKPK)

Arrival

Time 2026-04-25 22:14
Airport Miami International Airport (KMIA)
Time Latitude Longitude Altitude Speed Heading
2026-04-25 18:51 17.31124 -62.71539 159 ft 0 kts 196°
2026-04-25 19:11 17.31122 -62.71540 186 ft 1 kts 210°
2026-04-25 19:12 17.31131 -62.71553 159 ft 5 kts 319°
2026-04-25 19:12 17.31176 -62.71559 159 ft 9 kts 34°
2026-04-25 19:12 17.31216 -62.71500 159 ft 12 kts 57°
2026-04-25 19:12 17.31275 -62.71445 160 ft 10 kts 31°
2026-04-25 19:13 17.31336 -62.71407 163 ft 10 kts 31°
2026-04-25 19:13 17.31396 -62.71369 166 ft 10 kts 31°
2026-04-25 19:13 17.31458 -62.71326 167 ft 13 kts 41°
2026-04-25 19:13 17.31522 -62.71234 168 ft 18 kts 56°
2026-04-25 19:14 17.31568 -62.71161 169 ft 18 kts 57°
2026-04-25 19:14 17.31614 -62.71088 169 ft 17 kts 56°
2026-04-25 19:14 17.31655 -62.70955 169 ft 9 kts 31°
2026-04-25 19:14 17.31684 -62.70972 169 ft 8 kts 280°
2026-04-25 19:15 17.31654 -62.71027 169 ft 16 kts 237°
2026-04-25 19:15 17.31448 -62.71352 167 ft 91 kts 236°
2026-04-25 19:15 17.30976 -62.72097 176 ft 153 kts 236°
2026-04-25 19:15 17.30375 -62.73083 779 ft 155 kts 238°
2026-04-25 19:16 17.29838 -62.74073 1468 ft 165 kts 239°
2026-04-25 19:16 17.29200 -62.75220 1832 ft 197 kts 235°
2026-04-25 19:16 17.28376 -62.76456 2265 ft 218 kts 232°
2026-04-25 19:16 17.27435 -62.77815 2502 ft 243 kts 232°
2026-04-25 19:17 17.26428 -62.79328 2961 ft 260 kts 234°
2026-04-25 19:17 17.25408 -62.80906 3815 ft 262 kts 234°
2026-04-25 19:17 17.24395 -62.82495 4584 ft 265 kts 234°
2026-04-25 19:17 17.23440 -62.84133 4899 ft 266 kts 246°
2026-04-25 19:18 17.23186 -62.86059 4963 ft 274 kts 277°
2026-04-25 19:18 17.23884 -62.87925 4988 ft 281 kts 303°
2026-04-25 19:18 17.25299 -62.89330 4994 ft 282 kts 318°
2026-04-25 19:18 17.26433 -62.90964 5043 ft 280 kts 284°
2026-04-25 19:19 17.26848 -62.92953 5806 ft 279 kts 281°
2026-04-25 19:19 17.27323 -62.94915 6730 ft 278 kts 287°
2026-04-25 19:19 17.28372 -62.96624 7467 ft 287 kts 319°
2026-04-25 19:19 17.29506 -62.97348 7997 ft 290 kts 333°
2026-04-25 19:20 17.31994 -62.98497 9040 ft 295 kts 334°
2026-04-25 19:20 17.33863 -62.99393 9814 ft 297 kts 327°
2026-04-25 19:20 17.35335 -63.00882 10333 ft 302 kts 298°
2026-04-25 19:20 17.36083 -63.02998 10525 ft 321 kts 283°
2026-04-25 19:21 17.36627 -63.05348 10678 ft 343 kts 281°
2026-04-25 19:21 17.37739 -63.10459 11042 ft 377 kts 281°
2026-04-25 19:21 17.38332 -63.13156 11527 ft 382 kts 282°
2026-04-25 19:22 17.38938 -63.15870 12122 ft 384 kts 282°
2026-04-25 19:22 17.39552 -63.18598 12701 ft 386 kts 282°
2026-04-25 19:22 17.40802 -63.24107 13761 ft 392 kts 282°
2026-04-25 19:23 17.41436 -63.26893 14223 ft 395 kts 282°
2026-04-25 19:23 17.42414 -63.31194 14941 ft 398 kts 282°
2026-04-25 19:23 17.43056 -63.34021 15395 ft 400 kts 282°
2026-04-25 19:24 17.43702 -63.36867 15837 ft 403 kts 281°
2026-04-25 19:24 17.44352 -63.39733 16280 ft 406 kts 281°
2026-04-25 19:24 17.45662 -63.45515 17145 ft 410 kts 281°
2026-04-25 19:25 17.46985 -63.51366 17973 ft 415 kts 281°
2026-04-25 19:25 17.47643 -63.54276 18361 ft 418 kts 281°
2026-04-25 19:25 17.48313 -63.57242 18722 ft 419 kts 281°
2026-04-25 19:26 17.48984 -63.60215 19115 ft 420 kts 281°
2026-04-25 19:26 17.49657 -63.63200 19484 ft 421 kts 281°
2026-04-25 19:26 17.50411 -63.66173 19836 ft 424 kts 286°
2026-04-25 19:26 17.51587 -63.69021 20179 ft 429 kts 295°
2026-04-25 19:27 17.53027 -63.71765 20548 ft 430 kts 296°
2026-04-25 19:27 17.54011 -63.73617 20788 ft 431 kts 296°
2026-04-25 19:27 17.55944 -63.77264 21243 ft 433 kts 296°
2026-04-25 19:27 17.57397 -63.80028 21590 ft 434 kts 296°
2026-04-25 19:28 17.58848 -63.82808 21922 ft 435 kts 296°
2026-04-25 19:28 17.60296 -63.85597 22251 ft 437 kts 296°
2026-04-25 19:28 17.61745 -63.88397 22599 ft 437 kts 296°
2026-04-25 19:28 17.63195 -63.91203 22917 ft 438 kts 296°
2026-04-25 19:29 17.64649 -63.94020 23210 ft 440 kts 296°
2026-04-25 19:29 17.66106 -63.96843 23491 ft 441 kts 296°
2026-04-25 19:29 17.67570 -63.99680 23736 ft 443 kts 295°
2026-04-25 19:29 17.69035 -64.02521 23984 ft 444 kts 295°
2026-04-25 19:30 17.70504 -64.05369 24224 ft 445 kts 295°
2026-04-25 19:30 17.71975 -64.08224 24445 ft 446 kts 295°
2026-04-25 19:30 17.73452 -64.11089 24670 ft 447 kts 295°
2026-04-25 19:30 17.74929 -64.13957 24895 ft 448 kts 295°
2026-04-25 19:31 17.76409 -64.16833 25114 ft 449 kts 295°
2026-04-25 19:31 17.77893 -64.19718 25317 ft 450 kts 295°
2026-04-25 19:31 17.79381 -64.22610 25519 ft 451 kts 295°
2026-04-25 19:31 17.80872 -64.25510 25727 ft 452 kts 295°
2026-04-25 19:32 17.82364 -64.28420 25924 ft 453 kts 295°
2026-04-25 19:32 17.83857 -64.31335 26120 ft 454 kts 294°
2026-04-25 19:32 17.85351 -64.34255 26310 ft 455 kts 294°
2026-04-25 19:32 17.86342 -64.36193 26444 ft 455 kts 294°
2026-04-25 19:33 17.88349 -64.40119 26671 ft 457 kts 294°
2026-04-25 19:33 17.89852 -64.43060 26891 ft 457 kts 294°
2026-04-25 19:33 17.91351 -64.45993 27193 ft 455 kts 294°
2026-04-25 19:33 17.92842 -64.48912 27516 ft 453 kts 294°
2026-04-25 19:34 17.94327 -64.51819 27801 ft 451 kts 294°
2026-04-25 19:34 17.95809 -64.54725 28059 ft 451 kts 294°
2026-04-25 19:34 17.97289 -64.57626 28333 ft 450 kts 294°
2026-04-25 19:34 17.98763 -64.60519 28648 ft 449 kts 294°
2026-04-25 19:35 18.00233 -64.63405 28962 ft 447 kts 294°
2026-04-25 19:35 18.01679 -64.66243 29262 ft 446 kts 294°
2026-04-25 19:35 18.03140 -64.69113 29568 ft 445 kts 294°
2026-04-25 19:35 18.04595 -64.71974 29905 ft 443 kts 294°
2026-04-25 19:36 18.06046 -64.74828 30197 ft 442 kts 294°
2026-04-25 19:36 18.07491 -64.77670 30464 ft 441 kts 294°
2026-04-25 19:36 18.08933 -64.80509 30757 ft 439 kts 293°
2026-04-25 19:36 18.10366 -64.83332 31057 ft 437 kts 293°
2026-04-25 19:37 18.11792 -64.86140 31381 ft 434 kts 293°
2026-04-25 19:37 18.13210 -64.88934 31709 ft 432 kts 293°
2026-04-25 19:37 18.14619 -64.91716 31948 ft 432 kts 293°
2026-04-25 19:37 18.16036 -64.94514 31929 ft 434 kts 293°
2026-04-25 19:38 18.18871 -65.00107 31939 ft 432 kts 293°
2026-04-25 19:38 18.21686 -65.05658 31952 ft 429 kts 293°
2026-04-25 19:39 18.24489 -65.11197 31954 ft 428 kts 293°
2026-04-25 19:39 18.24941 -65.12090 31955 ft 428 kts 293°
2026-04-25 19:42 18.29685 -65.21483 31967 ft 438 kts 293°
2026-04-25 19:42 18.32553 -65.27163 31943 ft 440 kts 293°
2026-04-25 19:43 18.34956 -65.31925 31962 ft 440 kts 293°
2026-04-25 19:43 18.37806 -65.37580 31947 ft 440 kts 293°
2026-04-25 19:44 18.40671 -65.43275 31947 ft 440 kts 293°
2026-04-25 19:44 18.43531 -65.48969 31945 ft 439 kts 293°
2026-04-25 19:45 18.46402 -65.54690 31962 ft 438 kts 293°
2026-04-25 19:45 18.49227 -65.60323 31944 ft 437 kts 293°
2026-04-25 19:46 18.52058 -65.65974 31941 ft 435 kts 293°
2026-04-25 19:46 18.54874 -65.71602 31927 ft 433 kts 293°
2026-04-25 19:47 18.57680 -65.77215 31925 ft 432 kts 293°
2026-04-25 19:47 18.60478 -65.82815 31922 ft 431 kts 293°
2026-04-25 19:48 18.63270 -65.88410 31920 ft 431 kts 293°
2026-04-25 19:48 18.66057 -65.93999 31932 ft 430 kts 293°
2026-04-25 19:49 18.67918 -65.97735 31922 ft 430 kts 293°
2026-04-25 19:49 18.71618 -66.05169 31919 ft 430 kts 293°
2026-04-25 19:50 18.75783 -66.13545 31919 ft 429 kts 293°
2026-04-25 19:51 18.78553 -66.19125 31916 ft 429 kts 293°
2026-04-25 19:51 18.81322 -66.24707 31915 ft 429 kts 293°
2026-04-25 19:52 18.84093 -66.30298 31917 ft 430 kts 293°
2026-04-25 19:52 18.86860 -66.35886 31918 ft 430 kts 293°
2026-04-25 19:53 18.89628 -66.41481 31929 ft 430 kts 292°
2026-04-25 19:53 18.92398 -66.47078 31919 ft 430 kts 293°
2026-04-25 19:54 18.95635 -66.52439 31917 ft 434 kts 299°
2026-04-25 19:54 18.99101 -66.57672 31923 ft 435 kts 299°
2026-04-25 19:55 19.02557 -66.62913 31919 ft 435 kts 299°
2026-04-25 19:55 19.05985 -66.68170 31920 ft 434 kts 298°
2026-04-25 19:56 19.09402 -66.73444 31918 ft 434 kts 298°
2026-04-25 19:56 19.12811 -66.78716 31919 ft 434 kts 298°
2026-04-25 19:57 19.16220 -66.83991 31918 ft 434 kts 298°
2026-04-25 19:57 19.19626 -66.89267 31920 ft 434 kts 298°
2026-04-25 19:58 19.23034 -66.94549 31920 ft 434 kts 298°
2026-04-25 19:58 19.26414 -66.99792 31919 ft 434 kts 298°
2026-04-25 19:59 19.29814 -67.05070 31933 ft 434 kts 298°
2026-04-25 19:59 19.33210 -67.10346 31922 ft 434 kts 298°
2026-04-25 20:00 19.36602 -67.15622 31920 ft 433 kts 298°
2026-04-25 20:00 19.39417 -67.20004 31923 ft 433 kts 298°
2026-04-25 20:01 19.44492 -67.27910 31923 ft 432 kts 298°
2026-04-25 20:01 19.47870 -67.33179 31921 ft 432 kts 298°
2026-04-25 20:02 19.51244 -67.38446 31919 ft 432 kts 298°
2026-04-25 20:02 19.54614 -67.43712 31920 ft 431 kts 298°
2026-04-25 20:03 19.57980 -67.48975 31920 ft 431 kts 298°
2026-04-25 20:03 19.61347 -67.54244 31922 ft 431 kts 298°
2026-04-25 20:04 19.64708 -67.59510 31921 ft 431 kts 298°
2026-04-25 20:04 19.68065 -67.64774 31941 ft 431 kts 298°
2026-04-25 20:05 19.71418 -67.70035 31916 ft 430 kts 298°
2026-04-25 20:05 19.74760 -67.75284 31919 ft 429 kts 298°
2026-04-25 20:06 19.78094 -67.80524 31917 ft 428 kts 298°
2026-04-25 20:06 19.81421 -67.85760 31919 ft 427 kts 298°
2026-04-25 20:07 19.84745 -67.90994 31918 ft 427 kts 298°
2026-04-25 20:07 19.87871 -67.95921 31921 ft 427 kts 298°
2026-04-25 20:08 19.91165 -68.01118 31915 ft 427 kts 298°
2026-04-25 20:08 19.94480 -68.06351 31919 ft 427 kts 298°
2026-04-25 20:09 19.97795 -68.11590 31918 ft 427 kts 298°
2026-04-25 20:09 20.01110 -68.16834 31915 ft 427 kts 298°
2026-04-25 20:10 20.04427 -68.22084 31919 ft 428 kts 298°
2026-04-25 20:10 20.07740 -68.27334 31909 ft 427 kts 298°
2026-04-25 20:11 20.11050 -68.32583 31915 ft 427 kts 298°
2026-04-25 20:11 20.14357 -68.37832 31913 ft 427 kts 298°
2026-04-25 20:12 20.17660 -68.43081 31911 ft 427 kts 298°
2026-04-25 20:12 20.20427 -68.47481 31912 ft 427 kts 298°
2026-04-25 20:13 20.24284 -68.53620 31924 ft 427 kts 298°
2026-04-25 20:13 20.27424 -68.58956 31914 ft 424 kts 295°
2026-04-25 20:14 20.30362 -68.64390 31912 ft 423 kts 294°
2026-04-25 20:14 20.33287 -68.69827 31910 ft 423 kts 295°
2026-04-25 20:15 20.36207 -68.75220 31913 ft 423 kts 295°
2026-04-25 20:15 20.39152 -68.80642 31912 ft 423 kts 295°
2026-04-25 20:16 20.42098 -68.86066 31919 ft 423 kts 295°
2026-04-25 20:16 20.45042 -68.91488 31914 ft 422 kts 295°
2026-04-25 20:17 20.47980 -68.96906 31923 ft 421 kts 295°
2026-04-25 20:17 20.50905 -69.02305 31909 ft 420 kts 295°
2026-04-25 20:18 20.53818 -69.07687 31911 ft 418 kts 295°
2026-04-25 20:18 20.56720 -69.13055 31912 ft 417 kts 294°
2026-04-25 20:19 20.59618 -69.18421 31913 ft 417 kts 294°
2026-04-25 20:19 20.62490 -69.23744 31917 ft 416 kts 294°
2026-04-25 20:20 20.65374 -69.29095 31911 ft 416 kts 294°
2026-04-25 20:20 20.68257 -69.34447 31912 ft 415 kts 294°
2026-04-25 20:21 20.71132 -69.39791 31915 ft 415 kts 294°
2026-04-25 20:21 20.73054 -69.43365 31915 ft 415 kts 294°
2026-04-25 20:22 20.74834 -69.46678 31915 ft 415 kts 294°
2026-04-25 20:22 20.78656 -69.53799 31925 ft 415 kts 294°
2026-04-25 20:23 20.81527 -69.59153 31916 ft 415 kts 294°
2026-04-25 20:23 20.84397 -69.64511 31919 ft 415 kts 294°
2026-04-25 20:24 20.87263 -69.69868 31918 ft 415 kts 294°
2026-04-25 20:24 20.90112 -69.75195 31917 ft 415 kts 294°
2026-04-25 20:25 20.92974 -69.80548 31910 ft 414 kts 294°
2026-04-25 20:25 20.95833 -69.85891 31914 ft 413 kts 294°
2026-04-25 20:26 20.98683 -69.91225 31920 ft 413 kts 294°
2026-04-25 20:26 21.01530 -69.96559 31917 ft 412 kts 294°
2026-04-25 20:27 21.04372 -70.01891 31917 ft 412 kts 294°
2026-04-25 20:27 21.07210 -70.07219 31920 ft 412 kts 294°
2026-04-25 20:28 21.10045 -70.12548 31918 ft 412 kts 294°
2026-04-25 20:28 21.12877 -70.17876 31918 ft 412 kts 294°
2026-04-25 20:29 21.15707 -70.23205 31928 ft 412 kts 294°
2026-04-25 20:29 21.18538 -70.28541 31920 ft 412 kts 294°
2026-04-25 20:30 21.21366 -70.33877 31921 ft 412 kts 294°
2026-04-25 20:30 21.24191 -70.39213 31920 ft 411 kts 294°
2026-04-25 20:31 21.27012 -70.44546 31920 ft 411 kts 294°
2026-04-25 20:31 21.29834 -70.49886 31933 ft 412 kts 294°
2026-04-25 20:32 21.32637 -70.55196 31931 ft 412 kts 294°
2026-04-25 20:32 21.35458 -70.60544 31919 ft 412 kts 294°
2026-04-25 20:33 21.38273 -70.65887 31923 ft 411 kts 294°
2026-04-25 20:33 21.40154 -70.69460 31923 ft 411 kts 294°
2026-04-25 20:34 21.43894 -70.76571 31923 ft 411 kts 294°
2026-04-25 20:34 21.46700 -70.81913 31928 ft 411 kts 294°
2026-04-25 20:35 21.49505 -70.87258 31923 ft 411 kts 294°
2026-04-25 20:35 21.52307 -70.92604 31925 ft 411 kts 294°
2026-04-25 20:36 21.55106 -70.97947 31926 ft 410 kts 294°
2026-04-25 20:36 21.57901 -71.03291 31926 ft 410 kts 294°
2026-04-25 20:37 21.60583 -71.08691 31924 ft 409 kts 292°
2026-04-25 20:37 21.63197 -71.14114 31925 ft 409 kts 292°
2026-04-25 20:38 21.65815 -71.19536 31926 ft 409 kts 292°
2026-04-25 20:38 21.68442 -71.24959 31926 ft 409 kts 292°
2026-04-25 20:39 21.71073 -71.30382 31934 ft 409 kts 292°
2026-04-25 20:39 21.72833 -71.34012 31931 ft 409 kts 292°
2026-04-25 20:40 21.76334 -71.41238 31926 ft 409 kts 292°
2026-04-25 20:40 21.78961 -71.46667 31926 ft 409 kts 292°
2026-04-25 20:41 21.81586 -71.52097 31926 ft 409 kts 292°
2026-04-25 20:41 21.84208 -71.57528 31932 ft 409 kts 292°
2026-04-25 20:42 21.86812 -71.62926 31926 ft 409 kts 292°
2026-04-25 20:42 21.89431 -71.68362 31926 ft 409 kts 292°
2026-04-25 20:43 21.92047 -71.73797 31926 ft 409 kts 292°
2026-04-25 20:43 21.94662 -71.79235 31926 ft 409 kts 292°
2026-04-25 20:44 21.97275 -71.84675 31926 ft 409 kts 292°
2026-04-25 20:44 21.99885 -71.90115 31926 ft 409 kts 292°
2026-04-25 20:45 22.02495 -71.95561 31926 ft 409 kts 292°
2026-04-25 20:45 22.05105 -72.01011 31928 ft 409 kts 292°
2026-04-25 20:46 22.07714 -72.06466 31925 ft 410 kts 292°
2026-04-25 20:46 22.09884 -72.11006 31940 ft 410 kts 292°
2026-04-25 20:47 22.12493 -72.16472 31935 ft 410 kts 292°
2026-04-25 20:47 22.15106 -72.21952 31922 ft 411 kts 292°
2026-04-25 20:48 22.17717 -72.27433 31936 ft 411 kts 292°
2026-04-25 20:48 22.20328 -72.32921 31925 ft 411 kts 292°
2026-04-25 20:49 22.22939 -72.38413 31924 ft 411 kts 292°
2026-04-25 20:49 22.25546 -72.43904 31923 ft 411 kts 292°
2026-04-25 20:50 22.28152 -72.49400 31924 ft 411 kts 292°
2026-04-25 20:50 22.30756 -72.54896 31923 ft 411 kts 292°
2026-04-25 20:51 22.33359 -72.60396 31932 ft 411 kts 292°
2026-04-25 20:51 22.35960 -72.65898 31924 ft 411 kts 292°
2026-04-25 20:52 22.38120 -72.70470 31925 ft 411 kts 292°
2026-04-25 20:52 22.41157 -72.76909 31922 ft 411 kts 292°
2026-04-25 20:53 22.43750 -72.82412 31927 ft 411 kts 292°
2026-04-25 20:53 22.46342 -72.87921 31925 ft 411 kts 292°
2026-04-25 20:54 22.48933 -72.93431 31922 ft 411 kts 292°
2026-04-25 20:54 22.51524 -72.98943 31939 ft 412 kts 292°
2026-04-25 20:55 22.54118 -73.04469 31924 ft 412 kts 292°
2026-04-25 20:55 22.56714 -73.10004 31925 ft 413 kts 292°
2026-04-25 20:56 22.59293 -73.15511 31921 ft 413 kts 292°
2026-04-25 20:56 22.61906 -73.21094 31921 ft 413 kts 292°
2026-04-25 20:57 22.64482 -73.26607 31924 ft 413 kts 292°
2026-04-25 20:57 22.67073 -73.32159 31925 ft 413 kts 292°
2026-04-25 20:58 22.69663 -73.37712 31918 ft 413 kts 292°
2026-04-25 20:58 22.72248 -73.43264 31924 ft 413 kts 292°
2026-04-25 20:59 22.74833 -73.48819 31924 ft 413 kts 291°
2026-04-25 20:59 22.77413 -73.54371 31924 ft 413 kts 291°
2026-04-25 21:00 22.79557 -73.58990 31925 ft 413 kts 291°
2026-04-25 21:01 22.83857 -73.68265 31931 ft 412 kts 291°
2026-04-25 21:01 22.86429 -73.73823 31923 ft 412 kts 291°
2026-04-25 21:02 22.89002 -73.79388 31924 ft 412 kts 291°
2026-04-25 21:02 22.91568 -73.84944 31954 ft 412 kts 291°
2026-04-25 21:03 22.94138 -73.90515 31931 ft 413 kts 291°
2026-04-25 21:03 22.96709 -73.96095 31925 ft 413 kts 291°
2026-04-25 21:04 22.99278 -74.01678 31925 ft 413 kts 292°
2026-04-25 21:04 23.01846 -74.07262 31922 ft 414 kts 291°
2026-04-25 21:05 23.04412 -74.12850 31921 ft 414 kts 291°
2026-04-25 21:05 23.06976 -74.18439 31922 ft 413 kts 291°
2026-04-25 21:06 23.09538 -74.24033 31923 ft 413 kts 291°
2026-04-25 21:06 23.12080 -74.29587 31925 ft 413 kts 291°
2026-04-25 21:07 23.14637 -74.35180 31926 ft 413 kts 291°
2026-04-25 21:07 23.17191 -74.40775 31926 ft 413 kts 292°
2026-04-25 21:08 23.19743 -74.46371 31925 ft 413 kts 291°
2026-04-25 21:08 23.22292 -74.51967 31934 ft 413 kts 291°
2026-04-25 21:09 23.26111 -74.60364 31923 ft 413 kts 291°
2026-04-25 21:09 23.28655 -74.65966 31932 ft 413 kts 291°
2026-04-25 21:10 23.31196 -74.71566 31950 ft 413 kts 291°
2026-04-25 21:10 23.33738 -74.77177 31938 ft 414 kts 291°
2026-04-25 21:11 23.36283 -74.82802 31928 ft 414 kts 291°
2026-04-25 21:11 23.38828 -74.88432 31927 ft 414 kts 291°
2026-04-25 21:12 23.40898 -74.94242 31929 ft 411 kts 285°
2026-04-25 21:12 23.42365 -74.99160 31925 ft 411 kts 284°
2026-04-25 21:13 23.44423 -75.06081 31935 ft 411 kts 284°
2026-04-25 21:13 23.46196 -75.11961 31930 ft 412 kts 285°
2026-04-25 21:14 23.47992 -75.17881 31926 ft 412 kts 285°
2026-04-25 21:14 23.49789 -75.23801 31928 ft 411 kts 285°
2026-04-25 21:15 23.51584 -75.29724 31928 ft 411 kts 285°
2026-04-25 21:15 23.53375 -75.35641 31929 ft 411 kts 285°
2026-04-25 21:16 23.55166 -75.41568 31930 ft 411 kts 285°
2026-04-25 21:16 23.56952 -75.47490 31930 ft 412 kts 285°
2026-04-25 21:17 23.58739 -75.53420 31928 ft 412 kts 285°
2026-04-25 21:17 23.60522 -75.59348 31929 ft 411 kts 285°
2026-04-25 21:18 23.62302 -75.65278 31931 ft 411 kts 285°
2026-04-25 21:18 23.64081 -75.71212 31931 ft 411 kts 285°
2026-04-25 21:19 23.65857 -75.77143 31934 ft 411 kts 285°
2026-04-25 21:19 23.67631 -75.83079 31934 ft 412 kts 285°
2026-04-25 21:20 23.68817 -75.87053 31932 ft 412 kts 285°
2026-04-25 21:20 23.71175 -75.94962 31933 ft 412 kts 285°
2026-04-25 21:21 23.72942 -76.00903 31934 ft 412 kts 285°
2026-04-25 21:21 23.74709 -76.06851 31934 ft 412 kts 285°
2026-04-25 21:22 23.76475 -76.12803 31946 ft 413 kts 285°
2026-04-25 21:22 23.78242 -76.18774 31936 ft 414 kts 285°
2026-04-25 21:23 23.80015 -76.24768 31935 ft 415 kts 285°
2026-04-25 21:23 23.81787 -76.30771 31935 ft 416 kts 285°
2026-04-25 21:24 23.83562 -76.36793 31937 ft 417 kts 285°
2026-04-25 21:24 23.85336 -76.42823 31937 ft 417 kts 285°
2026-04-25 21:25 23.87097 -76.48817 31937 ft 417 kts 285°
2026-04-25 21:25 23.88868 -76.54856 31935 ft 418 kts 285°
2026-04-25 21:26 23.90640 -76.60906 31938 ft 418 kts 285°
2026-04-25 21:26 23.92412 -76.66966 31937 ft 419 kts 285°
2026-04-25 21:27 23.94182 -76.73031 31939 ft 419 kts 285°
2026-04-25 21:27 23.95950 -76.79096 31940 ft 419 kts 285°
2026-04-25 21:28 23.97715 -76.85162 31940 ft 419 kts 285°
2026-04-25 21:28 23.99479 -76.91236 31937 ft 419 kts 285°
2026-04-25 21:29 24.01243 -76.97316 31940 ft 420 kts 285°
2026-04-25 21:29 24.03007 -77.03409 31940 ft 420 kts 285°
2026-04-25 21:30 24.04767 -77.09498 31940 ft 420 kts 285°
2026-04-25 21:30 24.06230 -77.14568 31940 ft 420 kts 285°
2026-04-25 21:31 24.08286 -77.21704 31940 ft 420 kts 285°
2026-04-25 21:31 24.10041 -77.27806 31934 ft 421 kts 286°
2026-04-25 21:32 24.11501 -77.32888 31942 ft 421 kts 286°
2026-04-25 21:32 24.13255 -77.39006 31940 ft 422 kts 286°
2026-04-25 21:33 24.15011 -77.45137 31940 ft 422 kts 286°
2026-04-25 21:33 24.16765 -77.51277 31940 ft 422 kts 286°
2026-04-25 21:34 24.17643 -77.54351 31938 ft 423 kts 286°
2026-04-25 21:36 24.18724 -77.58144 31940 ft 423 kts 286°
2026-04-25 21:36 24.20463 -77.64249 31935 ft 423 kts 286°
2026-04-25 21:37 24.21929 -77.69407 31942 ft 424 kts 286°
2026-04-25 21:37 24.23965 -77.76577 31940 ft 424 kts 286°
2026-04-25 21:38 24.25715 -77.82754 31941 ft 424 kts 286°
2026-04-25 21:38 24.27787 -77.88802 31923 ft 428 kts 301°
2026-04-25 21:39 24.31201 -77.94153 31949 ft 428 kts 302°
2026-04-25 21:39 24.34551 -77.99557 31936 ft 429 kts 302°
2026-04-25 21:40 24.37882 -78.04992 31940 ft 430 kts 302°
2026-04-25 21:40 24.41216 -78.10441 31940 ft 430 kts 302°
2026-04-25 21:41 24.44556 -78.15898 31944 ft 431 kts 302°
2026-04-25 21:41 24.47897 -78.21361 31945 ft 431 kts 302°
2026-04-25 21:42 24.51239 -78.26832 31938 ft 431 kts 302°
2026-04-25 21:42 24.54581 -78.32308 31939 ft 431 kts 301°
2026-04-25 21:43 24.57921 -78.37787 31949 ft 432 kts 302°
2026-04-25 21:43 24.61265 -78.43280 31946 ft 433 kts 302°
2026-04-25 21:44 24.64610 -78.48780 31939 ft 433 kts 302°
2026-04-25 21:45 24.69627 -78.57041 31942 ft 433 kts 302°
2026-04-25 21:45 24.72969 -78.62553 31943 ft 433 kts 302°
2026-04-25 21:46 24.76308 -78.68067 31939 ft 433 kts 302°
2026-04-25 21:46 24.79650 -78.73589 31937 ft 433 kts 302°
2026-04-25 21:47 24.82988 -78.79106 31942 ft 433 kts 302°
2026-04-25 21:47 24.86326 -78.84627 31943 ft 433 kts 302°
2026-04-25 21:48 24.89661 -78.90153 31877 ft 434 kts 302°
2026-04-25 21:48 24.91337 -78.92932 31606 ft 435 kts 302°
2026-04-25 21:48 24.92990 -78.95675 31383 ft 437 kts 303°
2026-04-25 21:48 24.94675 -78.98474 31058 ft 438 kts 303°
2026-04-25 21:49 24.96364 -79.01280 30190 ft 440 kts 303°
2026-04-25 21:49 24.97507 -79.03178 29672 ft 439 kts 303°
2026-04-25 21:51 24.98382 -79.04633 29337 ft 436 kts 303°
2026-04-25 21:51 25.00046 -79.07402 28676 ft 431 kts 303°
2026-04-25 21:51 25.01690 -79.10136 28082 ft 425 kts 303°
2026-04-25 21:51 25.03316 -79.12844 27440 ft 421 kts 303°
2026-04-25 21:52 25.04933 -79.15538 26792 ft 419 kts 303°
2026-04-25 21:52 25.06514 -79.18172 26213 ft 414 kts 303°
2026-04-25 21:52 25.08106 -79.20828 25636 ft 416 kts 303°
2026-04-25 21:52 25.09709 -79.23502 25021 ft 418 kts 303°
2026-04-25 21:53 25.11317 -79.26187 24288 ft 417 kts 303°
2026-04-25 21:53 25.12906 -79.28844 23670 ft 411 kts 303°
2026-04-25 21:53 25.14447 -79.31420 23021 ft 404 kts 303°
2026-04-25 21:53 25.15985 -79.33993 22430 ft 399 kts 303°
2026-04-25 21:54 25.17495 -79.36520 22278 ft 386 kts 303°
2026-04-25 21:54 25.18961 -79.38974 22095 ft 375 kts 303°
2026-04-25 21:54 25.20379 -79.41349 21861 ft 366 kts 303°
2026-04-25 21:54 25.21780 -79.43698 21388 ft 365 kts 303°
2026-04-25 21:55 25.23177 -79.46039 20948 ft 365 kts 303°
2026-04-25 21:55 25.24552 -79.48345 20508 ft 363 kts 303°
2026-04-25 21:55 25.25936 -79.50669 20064 ft 360 kts 303°
2026-04-25 21:55 25.27307 -79.52970 19630 ft 357 kts 303°
2026-04-25 21:56 25.28668 -79.55258 19194 ft 355 kts 303°
2026-04-25 21:56 25.29582 -79.56795 18895 ft 354 kts 303°
2026-04-25 21:56 25.31371 -79.59803 18303 ft 352 kts 303°
2026-04-25 21:56 25.32711 -79.62058 17808 ft 350 kts 303°
2026-04-25 21:57 25.34042 -79.64300 17349 ft 347 kts 303°
2026-04-25 21:57 25.35362 -79.66523 16896 ft 344 kts 303°
2026-04-25 21:57 25.36674 -79.68733 16465 ft 341 kts 303°
2026-04-25 21:57 25.37953 -79.70889 16074 ft 338 kts 303°
2026-04-25 21:58 25.39243 -79.73056 15678 ft 334 kts 304°
2026-04-25 21:58 25.40570 -79.75155 15274 ft 332 kts 305°
2026-04-25 21:58 25.41920 -79.77231 14853 ft 330 kts 306°
2026-04-25 21:58 25.43259 -79.79288 14449 ft 328 kts 306°
2026-04-25 21:59 25.44584 -79.81337 14044 ft 326 kts 306°
2026-04-25 21:59 25.45899 -79.83382 13625 ft 325 kts 306°
2026-04-25 21:59 25.47206 -79.85419 13174 ft 324 kts 305°
2026-04-25 22:00 25.49773 -79.89424 12404 ft 318 kts 305°
2026-04-25 22:00 25.51059 -79.91432 12002 ft 320 kts 305°
2026-04-25 22:00 25.52351 -79.93450 11595 ft 321 kts 305°
2026-04-25 22:00 25.53638 -79.95463 11181 ft 319 kts 305°
2026-04-25 22:01 25.54906 -79.97445 10997 ft 310 kts 305°
2026-04-25 22:01 25.56140 -79.99375 10829 ft 302 kts 305°
2026-04-25 22:01 25.57336 -80.01247 10687 ft 292 kts 305°
2026-04-25 22:01 25.58106 -80.02451 10605 ft 287 kts 305°
2026-04-25 22:02 25.59621 -80.04824 10239 ft 283 kts 305°
2026-04-25 22:02 25.60743 -80.06582 10124 ft 275 kts 305°
2026-04-25 22:02 25.61835 -80.08293 9955 ft 269 kts 305°
2026-04-25 22:02 25.62915 -80.09987 9658 ft 268 kts 305°
2026-04-25 22:03 25.63990 -80.11672 9365 ft 267 kts 305°
2026-04-25 22:03 25.65060 -80.13350 9073 ft 266 kts 305°
2026-04-25 22:03 25.66017 -80.15093 8825 ft 264 kts 296°
2026-04-25 22:03 25.66789 -80.16954 8582 ft 266 kts 295°
2026-04-25 22:04 25.67537 -80.18795 8340 ft 264 kts 295°
2026-04-25 22:04 25.68304 -80.20644 8102 ft 264 kts 295°
2026-04-25 22:04 25.69079 -80.22499 7843 ft 267 kts 295°
2026-04-25 22:04 25.69868 -80.24372 7583 ft 270 kts 295°
2026-04-25 22:05 25.70513 -80.25893 7371 ft 272 kts 295°
2026-04-25 22:05 25.71160 -80.27699 7094 ft 271 kts 281°
2026-04-25 22:05 25.71192 -80.29773 6850 ft 269 kts 267°
2026-04-25 22:05 25.71082 -80.31838 6572 ft 268 kts 267°
2026-04-25 22:06 25.70974 -80.33892 6299 ft 266 kts 267°
2026-04-25 22:06 25.70871 -80.35914 6021 ft 265 kts 267°
2026-04-25 22:06 25.70771 -80.37951 5746 ft 264 kts 266°
2026-04-25 22:06 25.70673 -80.39974 5477 ft 262 kts 266°
2026-04-25 22:07 25.70574 -80.42034 5204 ft 261 kts 266°
2026-04-25 22:07 25.70510 -80.43381 5025 ft 260 kts 266°
2026-04-25 22:07 25.70311 -80.46082 4522 ft 265 kts 263°
2026-04-25 22:07 25.70120 -80.48109 4327 ft 261 kts 263°
2026-04-25 22:08 25.69918 -80.50069 4242 ft 252 kts 262°
2026-04-25 22:08 25.69732 -80.51985 4048 ft 248 kts 268°
2026-04-25 22:08 25.70082 -80.53827 3668 ft 247 kts 297°
2026-04-25 22:08 25.71229 -80.55226 3225 ft 248 kts 329°
2026-04-25 22:09 25.72859 -80.55805 3130 ft 248 kts 354°
2026-04-25 22:09 25.74568 -80.55597 3026 ft 249 kts 24°
2026-04-25 22:09 25.75926 -80.54500 3002 ft 237 kts 50°
2026-04-25 22:09 25.76973 -80.53152 2994 ft 226 kts 52°
2026-04-25 22:10 25.77966 -80.51837 2985 ft 220 kts 52°
2026-04-25 22:10 25.78923 -80.50512 3029 ft 219 kts 61°
2026-04-25 22:10 25.79270 -80.48883 2745 ft 224 kts 97°
2026-04-25 22:10 25.78985 -80.47186 2370 ft 222 kts 105°
2026-04-25 22:11 25.78607 -80.45552 2071 ft 213 kts 106°
2026-04-25 22:11 25.78375 -80.44497 1998 ft 202 kts 101°
2026-04-25 22:11 25.78261 -80.42994 1804 ft 192 kts 95°
2026-04-25 22:11 25.78231 -80.41546 1665 ft 185 kts 90°
2026-04-25 22:12 25.78273 -80.40158 1593 ft 176 kts 91°
2026-04-25 22:12 25.78318 -80.38834 1398 ft 166 kts 91°
2026-04-25 22:12 25.78349 -80.37592 1114 ft 162 kts 90°
2026-04-25 22:12 25.78382 -80.36771 915 ft 158 kts 91°
2026-04-25 22:13 25.78449 -80.35250 720 ft 140 kts 90°
2026-04-25 22:13 25.78503 -80.34186 601 ft 140 kts 90°
2026-04-25 22:13 25.78541 -80.33084 415 ft 143 kts 89°
2026-04-25 22:13 25.78591 -80.31980 220 ft 145 kts 89°
2026-04-25 22:14 25.78641 -80.30860 36 ft 144 kts 91°
2026-04-25 22:14 25.78679 -80.29875 15 ft 102 kts 87°
2026-04-25 22:14 25.78703 -80.29308 18 ft 57 kts 86°
2026-04-25 22:14 25.78721 -80.28902 16 ft 39 kts 85°
2026-04-25 22:15 25.78782 -80.28718 16 ft 20 kts 52°
2026-04-25 22:15 25.78886 -80.28617 15 ft 19 kts 37°
2026-04-25 22:15 25.78980 -80.28542 17 ft 19 kts 35°
2026-04-25 22:16 25.79206 -80.28406 18 ft 11 kts 344°
2026-04-25 22:16 25.79254 -80.28472 17 ft 12 kts 299°
2026-04-25 22:16 25.79311 -80.28554 18 ft 14 kts 330°
2026-04-25 22:16 25.79408 -80.28567 17 ft 14 kts 358°
2026-04-25 22:17 25.79502 -80.28572 18 ft 13 kts 357°
2026-04-25 22:17 25.79592 -80.28575 21 ft 13 kts
2026-04-25 22:17 25.79665 -80.28551 18 ft 7 kts 30°
2026-04-25 22:17 25.79698 -80.28530 18 ft 3 kts 29°
2026-04-25 22:18 25.79712 -80.28521 18 ft 0 kts 28°